Tracking 17925 objects as of 22-January-2017
HD Live streaming from Space Station
objects crossing your sky now

METEOSAT 5 AKM

Track METEOSAT 5 AKM now!


NORAD ID: 21904
Int'l Code: 1991-015E
Perigee: 35,179.0 km
Apogee: 36,488.0 km
Inclination: 14.5 °
Period: 1,438.1 minutes
Semi major axis: 42204 km
RCS: 0.9471 m2 (medium)
Launch date: March 2, 1991
Source: European Space Agency (ESA)
Launch site: FRENCH GUIANA (FRGUI)

Note: This is a ROCKET BODY
Your satellite tracking list
Your tracking list is empty





NASA's NSSDC Master Catalog

Two Line Element Set (TLE):
1 21904U 91015E   17022.06664271  .00000053  00000-0  00000+0 0  9993
2 21904  14.4644   6.7459 0155080 145.8804  32.5453  1.00130026 82107
Source of the keplerian elements: AFSPC